Location: Stilling
(56.0622°N, 9.9882°E)
Time: 13:21:29
(UTC+00:00)

SPOT 5 - Pass Details

Date: 13 July 2020
Orbit: 622 x 816 km, 98.3° (Epoch: 07 August)

Event Time Altitude Azimuth Distance (km) Brightness Sun altitude
Exits shadow 21:04:58 - 175° (S) 2,643 5.2 -6.8°
Reaches altitude 10° 21:06:06 10° 177° (S) 2,185 4.8 -6.8°
Maximum altitude 21:10:49 59° 258° (WSW) 791 3.2 -7.2°
Drops below altitude 10° 21:15:19 10° 338° (NNW) 2,088 7.0 -7.5°
Sets 21:17:32 0° 342° (NNW) 2,982 8.1 -7.7°
